This is the latest recevied weather packets stored in our database for station/object KE8WMS. If no packets are shown the sender has not sent any weather packets the latest 10 day(s).
| Time | Temp. | Humidity | Pressure | Rain* | Wind** | Luminosity | Snow |
|---|---|---|---|---|---|---|---|
| 1778101425 | 10.56° C | 70% | 1008.9 hPa | 0 mm | - | 189 W/m² | - |
| 1778101122 | 10° C | 69% | 1008.9 hPa | 0 mm | - | 207 W/m² | - |
| 1778100818 | 10.56° C | 69% | 1008.8 hPa | 0 mm | - | 250 W/m² | - |
| 1778100514 | 10° C | 67% | 1008.8 hPa | 0 mm | - | 240 W/m² | - |
| 1778100212 | 10° C | 68% | 1008.9 hPa | 0 mm | - | 242 W/m² | - |
| 1778099910 | 10° C | 69% | 1008.5 hPa | 0 mm | - | 277 W/m² | - |
| 1778099606 | 10° C | 70% | 1008.5 hPa | 0 mm | - | 276 W/m² | - |
| 1778099303 | 9.44° C | 72% | 1008.5 hPa | 0 mm | - | 176 W/m² | - |
| 1778099001 | 10° C | 71% | 1008.5 hPa | 0 mm | - | 147 W/m² | - |
| 1778098697 | 10° C | 72% | 1008.5 hPa | 0 mm | - | 165 W/m² | - |
| 1778098394 | 9.44° C | 73% | 1008.5 hPa | 0 mm | - | 170 W/m² | - |
| 1778098091 | 9.44° C | 73% | 1008.4 hPa | 0 mm | - | 164 W/m² | - |
| 1778097787 | 10° C | 74% | 1008.4 hPa | 0 mm | - | 174 W/m² | - |
| 1778097483 | 10° C | 71% | 1008.3 hPa | 0 mm | - | 147 W/m² | - |
| 1778097181 | 10° C | 72% | 1008.3 hPa | 0 mm | - | 169 W/m² | - |
| 1778096878 | 10° C | 72% | 1009.2 hPa | 0 mm | - | 189 W/m² | - |
| 1778096574 | 10.56° C | 72% | 1009.4 hPa | 0 mm | - | 197 W/m² | - |
| 1778096272 | 10.56° C | 71% | 1009.3 hPa | 0 mm | - | 255 W/m² | - |
| 1778095968 | 10.56° C | 71% | 1009.4 hPa | 0 mm | - | 274 W/m² | - |
| 1778095664 | 10.56° C | 72% | 1009.1 hPa | 0 mm | - | 392 W/m² | - |
| 1778095362 | 11.67° C | 70% | 1009.1 hPa | 0 mm | - | 300 W/m² | - |
| 1778095058 | 11.67° C | 70% | 1009.1 hPa | 0 mm | - | 846 W/m² | - |
| 1778094754 | 11.11° C | 67% | 1009.3 hPa | 0 mm | - | 345 W/m² | - |
| 1778094452 | 11.11° C | 71% | 1009.1 hPa | 0 mm | - | 416 W/m² | - |
| 1778094148 | 12.78° C | 68% | 1008.9 hPa | 0 mm | - | 390 W/m² | - |
* Rain latest hour (hover to see other rain measurements)
** Current wind speed in m/s (hover to see current wind gust speed)